Weather History for Grazzanise, Italy

Change the Weather History Date:

Sunday, March 30, 2014

  Actual Average (LIRN) Record (LIRN)
Temperature  
Mean Temperature 57 °F -  
Max Temperature 70 °F 65 °F 68 °F (2008)
Min Temperature 44 °F 45 °F 41 °F (1997)
Degree Days  
Heating Degree Days 8    
Growing Degree Days 7 (Base 50)    
Moisture  
Dew Point 50 °F    
Average Humidity 80    
Maximum Humidity 100    
Minimum Humidity 47    
Precipitation  
Precipitation 0.00 in 0.09 in - ()
Sea Level Pressure  
Sea Level Pressure 30.07 in    
Wind  
Wind Speed 5 mph ()    
Max Wind Speed 9 mph    
Max Gust Speed -    
Visibility 10.5 miles    
Events      
Averages and records for this station are not official NWS values.
T = Trace of Precipitation, MM = Missing Value Source: Averaged Metar Reports

Daily Weather History Graph

Daily Weather History Graph

Search for Another Location

Airport:

Trip Planner

Search our weather history database for the weather conditions in past years. The results will help you decide how hot, cold, wet, or windy it might be!

Date:

Astronomy

Mar. 30, 2014 Rise Set
Actual Time 6:50 AM CEST 7:26 PM CEST
Civil Twilight 6:23 AM CEST 7:53 PM CEST
Nautical Twilight 5:50 AM CEST 8:26 PM CEST
Astronomical Twilight 5:16 AM CEST 9:00 PM CEST
Moon 6:26 AM CEST (3/30) 7:19 PM CEST (3/30)
Length of Visible Light 13h 30m
Length of Day
12h 35m
Waning Crescent, 0% of the Moon is Illuminated
Mar 30
Waning Crescent
Mar 30
New
Apr 7
First Quarter
Apr 15
Full
Apr 22
Last Quarter

Hourly Weather History & Observations

Time (CEST) Temp. Windchill Dew Point Humidity Pressure Visibility Wind Dir Wind Speed Gust Speed Precip Events Conditions
12:55 AM 50.0 °F - 46.4 °F 87% 30.12 in - NNE 8.1 mph - N/A   Clear
1:00 AM 50 °F - 47 °F 86% 30.13 in 7 mi NNE 8.1 mph - -  
1:55 AM 50.0 °F - 46.4 °F 87% 30.09 in - NNE 6.9 mph - N/A   Clear
3:55 AM 48.2 °F - 46.4 °F 93% 30.09 in - NNE 5.8 mph - N/A   Clear
4:55 AM 44.6 °F 40.7 °F 44.6 °F 100% 30.09 in - NNE 6.9 mph - N/A   Clear
5:00 AM 45 °F - 45 °F 99% 30.11 in 7 mi NNE 6.9 mph - -  
5:55 AM 44.6 °F 40.7 °F 44.6 °F 100% 30.09 in - NNE 6.9 mph - N/A   Clear
6:55 AM 44.6 °F 40.7 °F 42.8 °F 93% 30.09 in - NNE 6.9 mph - N/A   Clear
7:55 AM 44.6 °F 40.7 °F 42.8 °F 93% 30.09 in 6.2 mi NNE 6.9 mph - N/A   Partly Cloudy
8:00 AM 45 °F - 44 °F 92% 30.10 in 12 mi NNE 6.9 mph - -   Scattered Clouds
8:55 AM 55.4 °F - 51.8 °F 88% 30.09 in - NNE 5.8 mph - N/A   Clear
9:55 AM 57.2 °F - 51.8 °F 82% 30.09 in 6.2 mi NNE 5.8 mph - N/A   Partly Cloudy
10:55 AM 64.4 °F - 53.6 °F 68% 30.09 in - East 3.5 mph - N/A   Clear
11:00 AM 65 °F - 54 °F 60% 30.10 in 11 mi East 3.5 mph - -   Clear
11:55 AM 68.0 °F - 53.6 °F 60% 30.06 in - East 2.3 mph - N/A   Clear
12:55 PM 69.8 °F - 50.0 °F 49% 30.06 in - SSW 5.8 mph - N/A   Clear
1:55 PM 69.8 °F - 53.6 °F 56% 30.06 in - SW 8.1 mph - N/A   Clear
2:00 PM 70 °F - 54 °F 47% 30.07 in 16 mi SW 8.1 mph - -   Clear
2:55 PM 68.0 °F - 53.6 °F 60% 30.04 in - West 9.2 mph - N/A   Clear
3:55 PM 68.0 °F - 55.4 °F 64% 30.04 in - West 8.1 mph - N/A   Clear
4:55 PM 68.0 °F - 55.4 °F 64% 30.01 in - West 9.2 mph - N/A   Clear
5:00 PM 68 °F - 55 °F 54% 30.04 in 16 mi West 9.2 mph - -   Clear
5:55 PM 66.2 °F - 55.4 °F 68% 30.04 in - West 6.9 mph - N/A   Clear
6:55 PM 64.4 °F - 57.2 °F 77% 30.04 in - WNW 3.5 mph - N/A   Clear
7:55 PM 59.0 °F - 53.6 °F 82% 30.01 in - Calm Calm - N/A   Clear
8:00 PM 59 °F - 54 °F 77% 30.03 in 16 mi Calm Calm - -   Clear
8:55 PM 55.4 °F - 51.8 °F 88% 30.04 in - South 1.2 mph - N/A   Clear
9:55 PM 51.8 °F - 50.0 °F 94% 30.04 in - SSW 1.2 mph - N/A   Clear
10:55 PM 50.0 °F - 50.0 °F 100% 30.04 in - Calm Calm - N/A   Clear
11:00 PM 50 °F - 49 °F 97% 30.06 in 12 mi Calm Calm - -   Clear
11:55 PM 50.0 °F - 48.2 °F 94% 30.04 in - Calm Calm - N/A   Clear
12:55 AM 46.4 °F - 42.8 °F 87% 30.04 in 6.2 mi NNE 2.3 mph - N/A   Partly Cloudy